Tiempo cada hora Cavalcante

Hoy, 23 Abril, Viernes

Tiempo Temperatura Precipitaciones Viento Presión Humedad
00:00 +19°C° 0 mm 0 mps 690 mmHg 83%
01:00 +19°C° 0 mm 0 mps 690 mmHg 84%
02:00 +19°C° 0 mm 0 mps 690 mmHg 85%
03:00 +18°C° 0 mm 0 mps 689 mmHg 86%
04:00 +18°C° 0 mm 0 mps 690 mmHg 86%
05:00 +18°C° 0 mm 0 mps 690 mmHg 86%
06:00 +18°C° 0 mm 0 mps 690 mmHg 86%
07:00 +20°C° 0 mm 0 mps 691 mmHg 79%
08:00 +22°C° 0 mm 0 mps 692 mmHg 73%
09:00 +24°C° 0 mm 0 mps 692 mmHg 67%
10:00 +25°C° 0 mm 0 mps 692 mmHg 62%
11:00 +29°C° 0 mm 1 mps 692 mmHg 57%
12:00 +30°C° 0 mm 1 mps 692 mmHg 53%
13:00 +29°C° 0.1 mm 1 mps 691 mmHg 56%
14:00 +29°C° 0.1 mm 1 mps 690 mmHg 60%
15:00 +26°C° 0.1 mm 0 mps 690 mmHg 63%
16:00 +25°C° 0.1 mm 0 mps 690 mmHg 67%
17:00 +24°C° 0.1 mm 0 mps 689 mmHg 71%
18:00 +23°C° 0.1 mm 0 mps 689 mmHg 74%
19:00 +24°C° 0 mm 1 mps 690 mmHg 75%
20:00 +24°C° 0 mm 1 mps 690 mmHg 75%
21:00 +23°C° 0 mm 1 mps 690 mmHg 76%
22:00 +23°C° 0 mm 1 mps 690 mmHg 75%
23:00 +21°C° 0 mm 0 mps 690 mmHg 75%

Mañana, 24 Abril, Sábado

Tiempo Temperatura Precipitaciones Viento Presión Humedad
00:00 +21°C° 0 mm 0 mps 690 mmHg 74%
01:00 +21°C° 0 mm 0 mps 690 mmHg 75%
02:00 +21°C° 0 mm 0 mps 689 mmHg 76%
03:00 +21°C° 0 mm 0 mps 689 mmHg 77%
04:00 +20°C° 0 mm 0 mps 689 mmHg 77%
05:00 +20°C° 0 mm 0 mps 689 mmHg 78%
06:00 +22°C° 0 mm 1 mps 690 mmHg 79%
07:00 +24°C° 0 mm 1 mps 690 mmHg 73%
08:00 +23°C° 0 mm 0 mps 691 mmHg 68%
09:00 +25°C° 0 mm 0 mps 692 mmHg 62%
10:00 +29°C° 0 mm 1 mps 692 mmHg 57%
11:00 +30°C° 0 mm 1 mps 691 mmHg 53%
12:00 +31°C° 0 mm 1 mps 691 mmHg 48%
13:00 +31°C° 0 mm 1 mps 691 mmHg 49%
14:00 +31°C° 0 mm 1 mps 690 mmHg 51%
15:00 +30°C° 0 mm 1 mps 689 mmHg 52%
16:00 +29°C° 0 mm 1 mps 689 mmHg 57%
17:00 +26°C° 0 mm 0 mps 689 mmHg 61%
18:00 +25°C° 0 mm 0 mps 689 mmHg 66%
19:00 +24°C° 0 mm 0 mps 689 mmHg 66%
20:00 +26°C° 0 mm 1 mps 690 mmHg 66%
21:00 +26°C° 0 mm 1 mps 690 mmHg 66%
22:00 +25°C° 0 mm 1 mps 690 mmHg 68%
23:00 +25°C° 0 mm 1 mps 690 mmHg 69%

Pasado mañana, 25 Abril, Domingo

Tiempo Temperatura Precipitaciones Viento Presión Humedad
00:00 +22°C° 0 mm 0 mps 690 mmHg 71%
01:00 +22°C° 0 mm 0 mps 689 mmHg 71%
02:00 +22°C° 0 mm 0 mps 689 mmHg 71%
03:00 +22°C° 0 mm 0 mps 689 mmHg 71%
04:00 +22°C° 0 mm 0 mps 689 mmHg 73%
05:00 +21°C° 0 mm 0 mps 689 mmHg 74%
06:00 +21°C° 0 mm 0 mps 690 mmHg 76%
07:00 +23°C° 0 mm 0 mps 690 mmHg 71%
08:00 +24°C° 0 mm 0 mps 691 mmHg 66%
09:00 +26°C° 0 mm 0 mps 691 mmHg 61%
10:00 +29°C° 0.1 mm 1 mps 691 mmHg 56%
11:00 +30°C° 0.1 mm 1 mps 691 mmHg 52%
12:00 +32°C° 0.1 mm 1 mps 691 mmHg 48%
13:00 +31°C° 0 mm 1 mps 690 mmHg 51%
14:00 +30°C° 0 mm 1 mps 689 mmHg 54%
15:00 +29°C° 0 mm 1 mps 689 mmHg 58%
16:00 +28°C° 0.1 mm 1 mps 689 mmHg 62%
17:00 +27°C° 0.1 mm 1 mps 689 mmHg 66%
18:00 +26°C° 0.1 mm 1 mps 689 mmHg 70%
19:00 +25°C° 0.1 mm 1 mps 689 mmHg 72%
20:00 +25°C° 0.1 mm 1 mps 690 mmHg 74%
21:00 +24°C° 0.1 mm 1 mps 690 mmHg 76%
22:00 +24°C° 0.1 mm 1 mps 690 mmHg 77%
23:00 +24°C° 0.1 mm 1 mps 690 mmHg 77%

26 Abril, Lunes

Tiempo Temperatura Precipitaciones Viento Presión Humedad
00:00 +24°C° 0.1 mm 1 mps 690 mmHg 77%
01:00 +24°C° 0 mm 1 mps 689 mmHg 78%
02:00 +21°C° 0 mm 0 mps 689 mmHg 79%
03:00 +21°C° 0 mm 0 mps 689 mmHg 80%
04:00 +21°C° 0.2 mm 0 mps 689 mmHg 81%
05:00 +20°C° 0.2 mm 0 mps 689 mmHg 83%
06:00 +20°C° 0.2 mm 0 mps 689 mmHg 84%
07:00 +21°C° 0.2 mm 0 mps 690 mmHg 79%
08:00 +25°C° 0.2 mm 1 mps 690 mmHg 74%
09:00 +27°C° 0.2 mm 1 mps 691 mmHg 68%
10:00 +28°C° 0.8 mm 1 mps 691 mmHg 65%
11:00 +26°C° 0.8 mm 0 mps 691 mmHg 62%
12:00 +27°C° 0.8 mm 0 mps 691 mmHg 60%
13:00 +27°C° 0.5 mm 0 mps 690 mmHg 60%
14:00 +27°C° 0.5 mm 0 mps 690 mmHg 60%
15:00 +27°C° 0.5 mm 0 mps 689 mmHg 61%
16:00 +27°C° 0.7 mm 1 mps 689 mmHg 67%
17:00 +26°C° 0.7 mm 1 mps 689 mmHg 74%
18:00 +24°C° 0.7 mm 1 mps 689 mmHg 81%
19:00 +23°C° 0.7 mm 1 mps 689 mmHg 84%
20:00 +23°C° 0.7 mm 1 mps 690 mmHg 87%
21:00 +22°C° 0.7 mm 1 mps 690 mmHg 91%
22:00 +22°C° 0.7 mm 1 mps 690 mmHg 91%
23:00 +22°C° 0.7 mm 1 mps 690 mmHg 91%

27 Abril, Martes

Tiempo Temperatura Precipitaciones Viento Presión Humedad
00:00 +20°C° 0.7 mm 0 mps 690 mmHg 92%
01:00 +22°C° 0.8 mm 1 mps 690 mmHg 92%
02:00 +22°C° 0.8 mm 1 mps 689 mmHg 92%
03:00 +22°C° 0.8 mm 1 mps 689 mmHg 93%
04:00 +22°C° 0.4 mm 1 mps 689 mmHg 92%
05:00 +22°C° 0.4 mm 1 mps 689 mmHg 92%
06:00 +22°C° 0.4 mm 1 mps 690 mmHg 92%
07:00 +22°C° 0.3 mm 1 mps 690 mmHg 92%
08:00 +22°C° 0.3 mm 1 mps 691 mmHg 92%
09:00 +22°C° 0.3 mm 1 mps 691 mmHg 92%
10:00 +21°C° 0.2 mm 0 mps 691 mmHg 89%
11:00 +21°C° 0.2 mm 0 mps 691 mmHg 86%
12:00 +22°C° 0.2 mm 0 mps 691 mmHg 84%
13:00 +23°C° 0.2 mm 0 mps 690 mmHg 79%
14:00 +24°C° 0.2 mm 0 mps 690 mmHg 74%
15:00 +25°C° 0.2 mm 0 mps 689 mmHg 68%
16:00 +24°C° 0.3 mm 0 mps 689 mmHg 73%
17:00 +23°C° 0.3 mm 0 mps 689 mmHg 79%
18:00 +22°C° 0.3 mm 0 mps 689 mmHg 84%
19:00 +21°C° 0.6 mm 0 mps 689 mmHg 86%
20:00 +20°C° 0.6 mm 0 mps 689 mmHg 89%
21:00 +20°C° 0.6 mm 0 mps 689 mmHg 91%
22:00 +20°C° 0.6 mm 0 mps 689 mmHg 90%
23:00 +20°C° 0.6 mm 0 mps 689 mmHg 89%

28 Abril, Miércoles

Tiempo Temperatura Precipitaciones Viento Presión Humedad
00:00 +22°C° 0.6 mm 1 mps 690 mmHg 89%
01:00 +20°C° 0.2 mm 0 mps 689 mmHg 89%
02:00 +20°C° 0.2 mm 0 mps 689 mmHg 89%
03:00 +20°C° 0.2 mm 0 mps 689 mmHg 89%
04:00 +22°C° 0.4 mm 1 mps 689 mmHg 90%
05:00 +22°C° 0.4 mm 1 mps 689 mmHg 90%
06:00 +21°C° 0.4 mm 1 mps 689 mmHg 91%
07:00 +22°C° 0.1 mm 1 mps 690 mmHg 89%
08:00 +23°C° 0.1 mm 1 mps 690 mmHg 87%
09:00 +24°C° 0.1 mm 1 mps 691 mmHg 85%
10:00 +25°C° 0.5 mm 1 mps 691 mmHg 81%
11:00 +26°C° 0.5 mm 2 mps 691 mmHg 77%
12:00 +27°C° 0.5 mm 2 mps 691 mmHg 73%
13:00 +27°C° 0.8 mm 1 mps 690 mmHg 72%
14:00 +27°C° 0.8 mm 1 mps 690 mmHg 71%
15:00 +27°C° 0.8 mm 1 mps 689 mmHg 70%
16:00 +26°C° 1.2 mm 1 mps 689 mmHg 76%
17:00 +25°C° 1.2 mm 1 mps 689 mmHg 82%
18:00 +23°C° 1.2 mm 1 mps 689 mmHg 87%
19:00 +23°C° 0.7 mm 1 mps 689 mmHg 87%
20:00 +23°C° 0.7 mm 1 mps 690 mmHg 88%
21:00 +22°C° 0.7 mm 1 mps 690 mmHg 88%
22:00 +22°C° 0.1 mm 1 mps 690 mmHg 88%
23:00 +22°C° 0.1 mm 1 mps 690 mmHg 87%
Mostrar más

Necesitamos Su Consentimiento

Meteoprog y nuestros Proveedores de Servicios pueden almacenar y acceder a sus datos personales como cookies, identificadores de dispositivo u otras tecnologías similares de su dispositivo y procesar dichos datos para personalizar contenido y anuncios, además de ofrecer funciones de redes sociales y analizar el tráfico.

  • Almacenar y/o acceder a información en su dispositivo

    Se puede almacenar o acceder a cookies, identificadores de dispositivo u otra información de su dispositivo para los fines anteriormente indicados.

  • Anuncios y contenido personalizados, medición de anuncios y contenido, percepciones del público, y desarrollo de productos

    Los anuncios y el contenido pueden personalizarse en base a su perfil. Se pueden añadir más datos para personalizar mejor los anuncios y contenidos. Se puede medir el rendimiento de los anuncios y contenidos. Se puede obtener la percepción sobre el público que ha visto los anuncios y contenidos. Dichos datos pueden usarse para desarrollar o mejorar la experiencia del usuario, sistemas y software.

Al hacer clic en ‘Estoy De Acuerdo’ usted permitirá el uso de las cookies, identificadores de dispositivo, balizas web u otras tecnologías similares indicadas. Su configuración puede cambiarse desde el navegador de su dispositivo.

Para ciertos fines, los intereses legítimos pueden ser considerados por encima del consentimiento. Puede leer más sobre ello en nuestra Política de Privacidad y Cookies.